Zurück zum Katalog

CZ-6A DEB

AktivSSO
NORAD 54424·DEBRIS·🇨🇳 China

Gestartet Nov 11, 2022 von Taiyuan Satellite Launch Center

Loading…

Nächste Überflüge (nächste 24 Stunden)

TLE

AktuellSource: Space-Track

Epoche: Sep 14, 2026, 12:52 UTC

1 54424U 22151EY  26257.53664758  .00000017  00000-0  39011-4 0  9992
2 54424  98.9753 251.2360 0105850 137.1955 223.7513 13.99865518195857

Verfolge CZ-6A DEB in Echtzeit mit AllMySat

Download on the App Store